This demonstration page uses our WeatherBlox Daily Observations layout. Learn more.

41.55636, -103.73856

Hourly Observations for January 15, 2018

Temp ( °F °C ) Dew Point ( °F °C ) Humidity (%) Winds ( mph kmh ) Pressure ( in mb ) Visibility ( mi km ) Precip ( " mm )
12:53 am 00:53 Cloudy 25 -3.9 17 -8.3 72 72 NNW 25 41 30.42 1030 9 14.484096 0.001 0.001
1:53 am 01:53 Cloudy 23 -5 12 -11.1 63 63 NNW 18 30 30.42 1030 10 16.09344 0 0
2:53 am 02:53 Cloudy 20 -6.7 8 -13.3 60 60 NNW 17 28 30.48 1032 10 16.09344 0 0
3:53 am 03:53 Cloudy 18 -7.8 5 -15 57 57 NNW 25 41 30.48 1032 9 14.484096 0 0
4:53 am 04:53 Cloudy 16 -8.9 2 -16.7 54 54 NNW 15 24 30.53 1034 10 16.09344 0 0
5:53 am 05:53 Mostly Cloudy 13 -10.6 2 -16.7 61 61 NW 18 30 30.56 1035 10 16.09344 0 0
6:53 am 06:53 Clear 10 -12.2 -1 -18.3 61 61 NW 17 28 30.62 1037 10 16.09344 0 0
7:53 am 07:53 Sunny 9 -12.8 -2 -18.9 61 61 NW 17 28 30.62 1037 10 16.09344 0 0
8:53 am 08:53 Sunny 9 -12.8 -3 -19.4 58 58 NW 18 30 30.68 1039 10 16.09344 0 0
9:53 am 09:53 Sunny 11 -11.7 -4 -20 51 51 NNW 15 24 30.71 1040 10 16.09344 0 0
10:53 am 10:53 Sunny 11 -11.7 -4 -20 51 51 NNW 23 37 30.71 1040 10 16.09344 0 0
11:53 am 11:53 Sunny 13 -10.6 -3 -19.4 49 49 NNW 16 26 30.71 1040 10 16.09344 0 0
12:53 pm 12:53 Sunny 13 -10.6 0 -17.8 56 56 N 16 26 30.68 1039 10 16.09344 0 0
1:53 pm 13:53 Sunny 14 -10 1 -17.2 56 56 N 15 24 30.68 1039 10 16.09344 0 0
2:53 pm 14:53 Sunny 14 -10 1 -17.2 56 56 NNW 17 28 30.71 1040 10 16.09344 0 0
3:53 pm 15:53 Sunny 13 -10.6 -1 -18.3 54 54 N 13 20 30.74 1041 10 16.09344 0 0
4:53 pm 16:53 Clear 9 -12.8 -2 -18.9 61 61 N 12 19 30.77 1042 10 16.09344 0 0
5:53 pm 17:53 Clear 7 -13.9 -3 -19.4 63 63 N 5 7 30.8 1043 10 16.09344 0 0
6:53 pm 18:53 Clear 4 -15.6 -3 -19.4 73 73 N 3 6 30.83 1044 10 16.09344 0 0
7:53 pm 19:53 Clear 1 -17.2 -5 -20.6 75 75 NW 6 9 30.86 1045 10 16.09344 0 0
8:53 pm 20:53 Clear -2 -18.9 -8 -22.2 75 75 N 7 11 30.86 1045 10 16.09344 0 0
9:53 pm 21:53 Clear -3 -19.4 -8 -22.2 79 79 NNW 7 11 30.86 1045 10 16.09344 0 0
10:53 pm 22:53 Clear -4 -20 -9 -22.8 79 79 NW 5 7 30.86 1045 10 16.09344 0 0
11:53 pm 23:53 Clear -3 -19.4 -8 -22.2 79 79 Calm 30.86 1045 10 16.09344 0 0

Powered by AerisWeather